KB1GNF Weather Reports


Display with metric or nautical units.
time (UTC)temp
F
wind
direction
speed
MPH
gust
MPH
rain 1hr
in
rain 24hr
in
rain mn
in
humidity
%
barometer
mb
20260509141504 41 91 0.0 0.0 0.02 0.07 0.07 92 1014.3
20260509141009 41 91 0.0 0.0 0.02 0.07 0.07 92 1014.3
20260509140503 41 91 0.0 0.0 0.02 0.07 0.07 92 1014.3
20260509140010 41 91 0.0 0.0 0.02 0.07 0.07 92 1014.3
20260509135505 41 91 0.0 0.0 0.01 0.06 0.06 92 1014.2
20260509135007 41 92 0.0 0.0 0.01 0.06 0.06 92 1014.4
20260509134513 41 127 0.0 0.0 0.01 0.06 0.06 92 1014.4
20260509134004 42 127 0.0 0.0 0.01 0.06 0.06 93 1014.5
20260509133504 41 110 0.0 0.0 0.01 0.06 0.06 93 1014.4
20260509133020 41 122 0.0 0.0 0.02 0.06 0.06 93 1014.3
20260509132509 41 124 0.0 0.0 0.02 0.06 0.06 93 1014.4
20260509132009 40 124 0.0 0.0 0.01 0.05 0.05 93 1014.4
20260509131528 40 92 0.0 0.0 0.01 0.05 0.05 93 1014.4
20260509131013 40 99 0.0 1.0 0.01 0.05 0.05 93 1014.3
20260509130510 40 98 0.0 1.0 0.01 0.05 0.05 93 1014.2
20260509130012 40 16 0.0 1.0 0.01 0.05 0.05 94 1014.2
20260509125504 40 15 0.0 1.0 0.01 0.05 0.05 94 1014.3
20260509125004 39 11 0.0 1.0 0.01 0.05 0.05 94 1014.3
20260509124509 39 1 0.0 1.0 0.01 0.05 0.05 93 1014.3
20260509124005 39 4 0.0 1.0 0.02 0.05 0.05 94 1014.4
20260509123504 39 88 0.0 1.0 0.02 0.05 0.05 93 1014.5
20260509123014 39 88 0.0 1.0 0.02 0.04 0.04 93 1014.4
20260509122504 39 127 0.0 1.0 0.02 0.04 0.04 93 1014.4
20260509122008 39 128 0.0 1.0 0.03 0.04 0.04 93 1014.5
20260509121518 39 130 0.0 1.0 0.03 0.04 0.04 94 1014.5
20260509121010 39 162 0.0 2.0 0.03 0.04 0.04 94 1014.6
20260509120509 38 154 0.0 2.0 0.04 0.04 0.04 94 1014.7
20260509120022 38 214 0.0 1.0 0.04 0.04 0.04 93 1014.7
20260509115502 38 90 0.0 0.0 0.04 0.04 0.04 94 1014.6
20260509115002 38 90 0.0 1.0 0.04 0.04 0.04 94 1014.4
20260509114506 38 90 0.0 1.0 0.04 0.04 0.04 93 1014.5
20260509114004 38 90 0.0 0.0 0.03 0.03 0.03 93 1014.6
20260509113504 38 91 0.0 0.0 0.03 0.03 0.03 93 1014.6
20260509113013 38 91 0.0 0.0 0.02 0.02 0.02 93 1014.6
20260509112503 37 90 0.0 0.0 0.02 0.02 0.02 93 1014.5
20260509112006 37 91 0.0 1.0 0.01 0.01 0.01 93 1014.4
20260509111517 37 90 0.0 1.0 0.01 0.01 0.01 93 1014.5
20260509111007 37 90 0.0 1.0 0.01 0.01 0.01 94 1014.5
20260509110508 37 90 0.0 1.0 0.00 0.00 0.00 94 1014.6
20260509110020 37 89 0.0 0.0 0.00 0.00 0.00 94 1014.7
20260509105510 37 89 0.0 1.0 0.00 0.00 0.00 94 1014.7
20260509105011 37 89 0.0 1.0 0.00 0.00 0.00 94 1014.7
20260509104526 37 87 0.0 1.0 0.00 0.00 0.00 94 1014.9
20260509104010 37 85 0.0 1.0 0.00 0.00 0.00 94 1014.9
20260509103504 36 108 0.0 0.0 0.00 0.00 0.00 94 1014.9
20260509103009 36 205 0.0 0.0 0.00 0.00 0.00 94 1014.9
20260509102504 36 205 0.0 0.0 0.00 0.00 0.00 94 1014.8
20260509102004 36 205 0.0 0.0 0.00 0.00 0.00 94 1014.6
20260509101514 36 205 0.0 0.0 0.00 0.00 0.00 94 1014.5
20260509101008 36 205 0.0 1.0 0.00 0.00 0.00 94 1014.6
20260509100504 35 205 0.0 1.0 0.00 0.00 0.00 94 1014.6
20260509100018 35 198 0.0 1.0 0.00 0.00 0.00 94 1014.6
20260509095508 35 89 0.0 1.0 0.00 0.00 0.00 94 1014.5
20260509095008 35 91 0.0 1.0 0.00 0.00 0.00 94 1014.5
20260509094523 35 157 0.0 2.0 0.00 0.00 0.00 94 1014.5
20260509094008 35 255 0.0 2.0 0.00 0.00 0.00 94 1014.6
20260509093512 35 280 0.0 0.0 0.00 0.00 0.00 94 1014.3
20260509093028 34 280 0.0 0.0 0.00 0.00 0.00 94 1014.2
20260509091521 34 280 0.0 0.0 0.00 0.00 0.00 94 1014.2
20260509091004 34 280 0.0 0.0 0.00 0.00 0.00 93 1014.2
20260509090508 34 280 0.0 0.0 0.00 0.00 0.00 94 1014.2
20260509090015 34 280 0.0 0.0 0.00 0.00 0.00 94 1014.2
20260509085505 34 280 0.0 0.0 0.00 0.00 0.00 94 1014.1
20260509085004 33 280 0.0 0.0 0.00 0.00 0.00 94 1014.1
20260509084526 33 280 0.0 0.0 0.00 0.00 0.00 94 1014.1
20260509084005 33 280 0.0 0.0 0.00 0.00 0.00 93 1014.0
20260509083508 33 280 0.0 0.0 0.00 0.00 0.00 93 1013.9
20260509083024 33 280 0.0 0.0 0.00 0.00 0.00 93 1013.8
20260509082510 33 280 0.0 0.0 0.00 0.00 0.00 93 1013.9
20260509082008 33 280 0.0 0.0 0.00 0.00 0.00 93 1013.9
20260509081524 33 280 0.0 0.0 0.00 0.00 0.00 93 1013.9
20260509081012 33 280 0.0 0.0 0.00 0.00 0.00 92 1013.9
20260509080510 33 280 0.0 0.0 0.00 0.00 0.00 92 1013.9
20260509080037 33 280 0.0 0.0 0.00 0.00 0.00 92 1013.9
20260509075505 33 280 0.0 0.0 0.00 0.00 0.00 92 1013.7
20260509075010 33 280 0.0 0.0 0.00 0.00 0.00 92 1013.7
20260509074516 33 280 0.0 0.0 0.00 0.00 0.00 92 1013.7
20260509074004 33 280 0.0 0.0 0.00 0.00 0.00 92 1013.8
20260509073507 33 280 0.0 0.0 0.00 0.00 0.00 91 1013.8
20260509073038 34 280 0.0 0.0 0.00 0.00 0.00 91 1013.8
20260509072507 34 280 0.0 0.0 0.00 0.00 0.00 91 1013.8
20260509072012 34 280 0.0 0.0 0.00 0.00 0.00 91 1013.8
20260509071522 34 280 0.0 1.0 0.00 0.00 0.00 91 1013.9
20260509071010 34 239 0.0 1.0 0.00 0.00 0.00 91 1013.9
20260509070026 34 210 0.0 1.0 0.00 0.00 0.00 91 1013.7
20260509065513 34 210 0.0 1.0 0.00 0.00 0.00 91 1013.7
20260509064529 35 345 0.0 0.0 0.00 0.00 0.00 90 1013.6
20260509063508 35 345 0.0 0.0 0.00 0.00 0.00 90 1013.8
20260509063020 35 345 0.0 0.0 0.00 0.00 0.00 90 1013.8
20260509062513 36 345 0.0 0.0 0.00 0.00 0.00 89 1013.8
20260509062010 36 345 0.0 0.0 0.00 0.00 0.00 89 1013.6
20260509061525 36 345 0.0 0.0 0.00 0.00 0.00 89 1013.6
20260509061011 36 345 0.0 0.0 0.00 0.00 0.00 89 1013.5
20260509060509 36 346 0.0 0.0 0.00 0.00 0.00 89 1013.5
20260509060025 37 345 0.0 0.0 0.00 0.00 0.00 89 1013.6
20260509055509 36 346 0.0 0.0 0.00 0.00 0.00 89 1013.7
20260509055011 37 345 0.0 0.0 0.00 0.00 0.00 89 1013.7
20260509054531 37 346 0.0 1.0 0.00 0.00 0.00 89 1013.8
20260509054011 36 346 0.0 1.0 0.00 0.00 0.00 89 1013.8
20260509053511 36 338 0.0 0.0 0.00 0.00 0.00 89 1013.9
20260509053032 36 332 0.0 0.0 0.00 0.00 0.00 89 1014.0
20260509052508 36 332 0.0 0.0 0.00 0.00 0.00 89 1014.1
20260509052007 36 332 0.0 0.0 0.00 0.00 0.00 89 1014.0
20260509051517 35 332 0.0 0.0 0.00 0.00 0.00 89 1014.0
20260509051007 35 332 0.0 0.0 0.00 0.00 0.00 89 1014.0
20260509050006 35 332 0.0 0.0 0.00 0.00 0.00 89 1013.7
20260509044508 35 332 0.0 0.0 0.00 0.00 0.00 88 1013.6
20260509043507 35 332 0.0 0.0 0.00 0.00 0.00 88 1013.6
20260509043026 35 332 0.0 0.0 0.00 0.00 0.00 88 1013.7
20260509041514 36 332 0.0 0.0 0.00 0.00 0.00 87 1013.6
20260509041011 36 332 0.0 0.0 0.00 0.00 0.00 87 1013.5
20260509040020 36 332 0.0 0.0 0.00 0.00 0.00 86 1013.6
20260509035005 36 333 0.0 0.0 0.00 0.00 0.00 85 1013.5
20260509034527 37 333 0.0 0.0 0.00 0.00 0.00 85 1013.5
20260509033502 37 329 0.0 0.0 0.00 0.00 0.00 85 1013.4
20260509033008 37 329 0.0 0.0 0.00 0.00 0.00 84 1013.5
20260509031517 38 329 0.0 0.0 0.00 0.00 0.00 83 1013.5
20260509030020 39 329 0.0 0.0 0.00 0.00 0.00 82 1013.3
20260509024522 39 329 0.0 0.0 0.00 0.00 0.00 81 1013.3
20260509023509 39 328 0.0 0.0 0.00 0.00 0.00 80 1013.2
20260509023026 40 328 0.0 0.0 0.00 0.00 0.00 79 1013.2
20260509022510 40 329 0.0 0.0 0.00 0.00 0.00 79 1013.2
20260509021517 41 329 0.0 0.0 0.00 0.00 0.00 79 1013.0
20260509020016 41 329 0.0 0.0 0.00 0.00 0.00 78 1012.7
20260509014518 42 329 0.0 0.0 0.00 0.00 0.00 76 1012.5
20260509013511 42 329 0.0 0.0 0.00 0.00 0.00 75 1012.2
20260509012008 43 329 0.0 0.0 0.00 0.00 0.00 73 1012.0
20260509011528 44 329 0.0 0.0 0.00 0.00 0.00 72 1012.0
20260509011008 44 329 0.0 0.0 0.00 0.00 0.00 70 1012.1
20260509010513 45 329 0.0 0.0 0.00 0.00 0.00 69 1012.1
20260509010019 45 329 0.0 0.0 0.00 0.00 0.00 70 1011.9
20260509005503 46 329 0.0 0.0 0.00 0.00 0.00 68 1012.0
20260509003508 48 342 0.0 0.0 0.00 0.00 0.00 65 1011.4
20260509002508 49 342 0.0 0.0 0.00 0.00 0.00 63 1011.3
20260509001526 50 341 0.0 0.0 0.00 0.00 0.00 59 1011.3
20260509001008 51 342 0.0 1.0 0.00 0.00 0.00 56 1011.2
20260509000507 51 342 0.0 2.0 0.00 0.00 0.00 55 1011.1
20260509000027 51 345 0.0 2.0 0.00 0.00 0.00 54 1011.1
20260508235508 51 330 0.0 1.0 0.00 0.00 0.00 55 1011.1
20260508235010 52 330 0.0 1.0 0.00 0.00 0.00 54 1011.0
20260508234511 52 352 0.0 3.0 0.00 0.00 0.00 54 1010.9
20260508233504 52 306 1.0 5.0 0.00 0.00 0.00 52 1010.7
20260508233017 53 292 1.0 6.0 0.00 0.00 0.00 52 1010.6
20260508232011 53 13 1.0 4.0 0.00 0.00 0.00 51 1010.5
20260508231523 53 259 0.0 4.0 0.00 0.00 0.00 51 1010.5
20260508230509 53 242 1.0 6.0 0.00 0.00 0.00 51 1010.4
20260508225507 53 205 1.0 6.0 0.00 0.00 0.00 50 1010.4
20260508225012 53 244 0.0 6.0 0.00 0.00 0.00 49 1010.3
20260508224526 54 252 2.0 6.0 0.00 0.00 0.00 49 1010.2
20260508224008 54 276 0.0 5.0 0.00 0.00 0.00 48 1010.1
20260508223512 54 287 0.0 5.0 0.00 0.00 0.00 48 1010.1
20260508223027 54 293 1.0 5.0 0.00 0.00 0.00 47 1010.0
20260508222507 55 315 1.0 6.0 0.00 0.00 0.00 47 1010.0
20260508222010 55 229 2.0 6.0 0.00 0.00 0.00 46 1009.9
20260508221521 55 2 2.0 6.0 0.00 0.00 0.00 46 1009.9
20260508221005 55 1 1.0 10.0 0.00 0.00 0.00 46 1010.0
20260508220502 55 214 4.0 10.0 0.00 0.00 0.00 45 1010.0
20260508220011 55 218 1.0 5.0 0.00 0.00 0.00 46 1010.0
20260508215504 54 289 1.0 9.0 0.00 0.00 0.00 45 1010.0
20260508215002 55 258 3.0 10.0 0.00 0.00 0.00 45 1010.0
20260508214509 55 238 2.0 10.0 0.00 0.00 0.00 44 1009.9
20260508214003 55 243 1.0 5.0 0.00 0.00 0.00 44 1009.9
20260508213502 55 273 0.0 6.0 0.00 0.00 0.00 43 1009.9
20260508212503 55 306 1.0 10.0 0.00 0.00 0.00 42 1009.8
20260508211002 56 262 2.0 9.0 0.00 0.00 0.00 41 1009.6
20260508204505 58 278 6.0 12.0 0.00 0.00 0.00 38 1009.5
20260508203009 59 284 5.0 15.0 0.00 0.00 0.00 40 1009.5
20260508202510 58 142 3.0 12.0 0.00 0.00 0.00 41 1009.5
20260508202005 58 296 2.0 12.0 0.00 0.00 0.00 39 1009.5
20260508201513 58 246 2.0 9.0 0.00 0.00 0.00 41 1009.4
20260508201009 59 185 4.0 13.0 0.00 0.00 0.00 39 1009.5
20260508200502 59 281 4.0 13.0 0.00 0.00 0.00 40 1009.5
20260508195006 59 336 4.0 12.0 0.00 0.00 0.00 38 1009.3
20260508194004 60 255 4.0 9.0 0.00 0.00 0.00 39 1009.4
20260508193008 59 279 4.0 10.0 0.00 0.00 0.00 42 1009.4
20260508192005 59 186 6.0 13.0 0.00 0.00 0.00 38 1009.5
20260508191511 59 305 1.0 13.0 0.00 0.00 0.00 42 1009.4
20260508191006 58 232 3.0 16.0 0.00 0.00 0.00 40 1009.5
20260508190505 57 325 4.0 16.0 0.00 0.00 0.00 40 1009.4
20260508190021 58 271 4.0 10.0 0.00 0.00 0.00 41 1009.5
20260508185507 58 214 4.0 10.0 0.00 0.00 0.00 39 1009.5
20260508185002 58 82 0.0 8.0 0.00 0.00 0.00 44 1009.4
20260508184004 57 264 6.0 17.0 0.00 0.00 0.00 41 1009.4
20260508183503 57 219 5.0 17.0 0.00 0.00 0.00 40 1009.7
20260508183005 57 205 5.0 17.0 0.00 0.00 0.00 41 1009.6
20260508181512 56 174 3.0 12.0 0.00 0.00 0.00 42 1009.8
20260508181007 56 187 3.0 14.0 0.00 0.00 0.00 42 1009.8
20260508180505 55 242 6.0 14.0 0.00 0.00 0.00 42 1009.8
20260508180011 56 143 2.0 7.0 0.00 0.00 0.00 43 1009.8
20260508175508 55 160 3.0 10.0 0.00 0.00 0.00 44 1009.9
20260508175006 55 294 4.0 10.0 0.00 0.00 0.00 43 1010.0
20260508174521 55 254 5.0 10.0 0.00 0.00 0.00 41 1010.0
20260508174008 55 295 4.0 12.0 0.00 0.00 0.00 42 1010.0
20260508172503 55 252 5.0 12.0 0.00 0.00 0.00 39 1009.9
20260508172003 56 269 2.0 10.0 0.00 0.00 0.00 39 1009.8
20260508171004 56 290 2.0 8.0 0.00 0.00 0.00 40 1009.7
20260508170015 56 219 2.0 12.0 0.00 0.00 0.00 41 1009.6
20260508165504 56 199 7.0 12.0 0.00 0.00 0.00 39 1009.6
20260508165004 57 332 2.0 7.0 0.00 0.00 0.00 40 1009.6
20260508164516 57 204 2.0 15.0 0.00 0.00 0.00 40 1009.6
20260508164007 57 257 1.0 15.0 0.00 0.00 0.00 40 1009.7
20260508163508 58 192 2.0 11.0 0.00 0.00 0.00 41 1009.6
20260508163019 57 176 1.0 9.0 0.00 0.00 0.00 42 1009.6
20260508162510 56 162 6.0 9.0 0.00 0.00 0.00 44 1009.7
20260508162010 56 221 5.0 13.0 0.00 0.00 0.00 43 1009.7
20260508161506 57 256 6.0 13.0 0.00 0.00 0.00 42 1009.8
20260508161004 57 144 5.0 16.0 0.00 0.00 0.00 42 1009.7
20260508160506 56 184 5.0 16.0 0.00 0.00 0.00 42 1009.6
20260508160015 57 248 7.0 13.0 0.00 0.00 0.00 40 1009.7
20260508154513 55 232 4.0 8.0 0.00 0.00 0.00 43 1010.0
20260508154004 55 246 3.0 8.0 0.00 0.00 0.00 47 1010.2
20260508153507 54 322 0.0 7.0 0.00 0.00 0.00 44 1010.2
20260508153018 55 310 2.0 10.0 0.00 0.00 0.00 43 1010.1
20260508152510 55 229 2.0 10.0 0.00 0.00 0.00 47 1009.9
20260508152010 54 243 3.0 9.0 0.00 0.00 0.00 46 1009.9
20260508151523 54 261 3.0 9.0 0.00 0.00 0.00 45 1010.0
20260508151012 55 349 2.0 14.0 0.00 0.00 0.00 43 1009.9
20260508150516 56 272 6.0 14.0 0.00 0.00 0.00 44 1010.0
20260508150011 56 241 4.0 11.0 0.00 0.00 0.00 44 1009.9
20260508145504 56 206 2.0 11.0 0.00 0.00 0.00 46 1009.9
20260508145004 56 321 5.0 12.0 0.00 0.00 0.00 45 1009.8
20260508144531 55 205 6.0 12.0 0.00 0.00 0.00 44 1010.0
20260508144005 55 287 4.0 8.0 0.00 0.00 0.00 47 1009.9
20260508143016 54 335 2.0 12.0 0.00 0.00 0.00 47 1010.1
20260508142510 55 232 4.0 9.0 0.00 0.00 0.00 48 1010.1
20260508142009 54 274 3.0 12.0 0.00 0.00 0.00 50 1010.1